Time,TemperatureF,DewpointF,PressureIn,WindDirection,WindDirectionDegrees,WindSpeedMPH,WindSpeedGustMPH,Humidity,HourlyPrecipIn,Conditions,Clouds,dailyrainin,SoftwareType,DateUTC
2013-08-01 00:01:00,64.4,61.1,29.71,NE,44,0.0,0.0,89,0.00,CLR,SCT,0.00,WeatherDisplay:10.37,2013-08-01 04:01:00,
2013-08-01 00:02:00,64.4,60.8,29.71,NE,44,0.0,0.0,88,0.00,CLR,SCT,0.00,WeatherDisplay:10.37,2013-08-01 04:02:00,
2013-08-01 00:07:00,64.2,60.9,29.71,NE,44,0.0,0.0,89,0.00,CLR,SCT,0.00,WeatherDisplay:10.37,2013-08-01 04:07:00,
2013-08-01 00:12:00,64.0,60.7,29.71,NE,44,0.0,0.0,89,0.00,CLR,SCT,0.00,WeatherDisplay:10.37,2013-08-01 04:12:00,
2013-08-01 00:17:00,63.8,60.5,29.71,NE,44,0.0,1.1,89,0.00,CLR,SCT,0.00,WeatherDisplay:10.37,2013-08-01 04:17:00,
2013-08-01 00:22:00,63.6,60.6,29.71,NE,44,0.0,0.0,90,0.00,CLR,SCT,0.00,WeatherDisplay:10.37,2013-08-01 04:22:00,
2013-08-01 00:27:00,63.5,60.8,29.71,NE,44,0.1,1.1,91,0.00,CLR,SCT,0.00,WeatherDisplay:10.37,2013-08-01 04:27:00,
2013-08-01 00:32:00,63.4,60.7,29.71,NE,44,0.0,0.0,91,0.00,CLR,SCT,0.00,WeatherDisplay:10.37,2013-08-01 04:32:00,
2013-08-01 00:37:00,63.3,60.6,29.70,NE,44,0.0,0.0,91,0.00,CLR,SCT,0.00,WeatherDisplay:10.37,2013-08-01 04:37:00,
2013-08-01 00:42:00,63.2,60.5,29.70,NE,44,0.0,0.0,91,0.00,CLR,SCT,0.00,WeatherDisplay:10.37,2013-08-01 04:42:00,
2013-08-01 00:47:00,63.2,60.5,29.70,NE,44,0.0,0.0,91,0.00,CLR,SCT,0.00,WeatherDisplay:10.37,2013-08-01 04:47:00,
2013-08-01 00:52:00,63.2,60.5,29.70,NE,44,0.0,0.0,91,0.00,CLR,SCT,0.00,WeatherDisplay:10.37,2013-08-01 04:52:00,
2013-08-01 00:57:00,63.1,60.4,29.70,NE,44,0.0,0.0,91,0.00,CLR,SCT,0.00,WeatherDisplay:10.37,2013-08-01 04:57:00,
2013-08-01 01:02:00,63.1,60.4,29.69,NE,44,0.0,0.0,91,0.00,CLR,SCT,0.00,WeatherDisplay:10.37,2013-08-01 05:02:00,
2013-08-01 01:07:00,63.1,60.4,29.69,NE,44,0.0,0.0,91,0.00,CLR,SCT,0.00,WeatherDisplay:10.37,2013-08-01 05:07:00,
2013-08-01 01:12:00,63.0,60.3,29.69,NE,44,0.0,0.0,91,0.00,CLR,SCT,0.00,WeatherDisplay:10.37,2013-08-01 05:12:00,
2013-08-01 01:17:00,63.0,60.6,29.69,NE,44,0.0,0.0,92,0.00,CLR,SCT,0.00,WeatherDisplay:10.37,2013-08-01 05:17:00,
2013-08-01 01:22:00,63.1,60.4,29.69,NE,44,0.0,0.0,91,0.00,CLR,SCT,0.00,WeatherDisplay:10.37,2013-08-01 05:22:00,
2013-08-01 01:27:00,63.1,60.4,29.69,NE,44,0.0,0.0,91,0.00,CLR,SCT,0.00,WeatherDisplay:10.37,2013-08-01 05:27:00,
2013-08-01 01:32:00,63.1,60.4,29.69,NE,44,0.0,0.0,91,0.00,CLR,SCT,0.00,WeatherDisplay:10.37,2013-08-01 05:32:00,
2013-08-01 01:37:00,63.1,60.4,29.69,NE,44,0.0,0.0,91,0.00,CLR,SCT,0.00,WeatherDisplay:10.37,2013-08-01 05:37:00,
2013-08-01 01:42:00,63.2,60.5,29.69,NE,44,0.0,0.0,91,0.00,CLR,SCT,0.00,WeatherDisplay:10.37,2013-08-01 05:42:00,
2013-08-01 01:47:00,63.3,60.6,29.68,NE,44,0.0,0.0,91,0.00,CLR,SCT,0.00,WeatherDisplay:10.37,2013-08-01 05:47:00,
2013-08-01 01:52:00,63.4,60.7,29.68,NE,44,0.0,0.0,91,0.00,CLR,SCT,0.00,WeatherDisplay:10.37,2013-08-01 05:52:00,
2013-08-01 01:57:00,63.5,60.8,29.68,NE,44,0.0,0.0,91,0.00,CLR,SCT,0.00,WeatherDisplay:10.37,2013-08-01 05:57:00,
2013-08-01 02:02:00,63.6,60.9,29.68,NE,44,0.0,0.0,91,0.00,CLR,SCT,0.00,WeatherDisplay:10.37,2013-08-01 06:02:00,
2013-08-01 02:07:00,63.6,60.9,29.68,NE,44,0.0,0.0,91,0.00,CLR,SCT,0.00,WeatherDisplay:10.37,2013-08-01 06:07:00,
2013-08-01 02:12:00,63.6,60.9,29.68,NE,44,0.0,1.1,91,0.00,CLR,SCT,0.00,WeatherDisplay:10.37,2013-08-01 06:12:00,
2013-08-01 02:17:00,63.6,60.9,29.67,NE,44,0.0,0.0,91,0.00,CLR,SCT,0.00,WeatherDisplay:10.37,2013-08-01 06:17:00,
2013-08-01 02:22:00,63.6,60.9,29.67,NE,44,0.0,0.0,91,0.00,CLR,SCT,0.00,WeatherDisplay:10.37,2013-08-01 06:22:00,
2013-08-01 02:27:00,63.4,60.7,29.67,NE,44,0.0,0.0,91,0.00,CLR,SCT,0.00,WeatherDisplay:10.37,2013-08-01 06:27:00,
2013-08-01 02:32:00,63.3,60.6,29.67,NE,44,0.0,0.0,91,0.00,CLR,SCT,0.00,WeatherDisplay:10.37,2013-08-01 06:32:00,
2013-08-01 02:37:00,63.2,60.5,29.67,NE,44,0.0,0.0,91,0.00,CLR,SCT,0.00,WeatherDisplay:10.37,2013-08-01 06:37:00,
2013-08-01 02:42:00,63.0,60.6,29.67,NE,44,0.0,0.0,92,0.00,CLR,SCT,0.00,WeatherDisplay:10.37,2013-08-01 06:42:00,
2013-08-01 02:47:00,62.8,60.4,29.67,NE,44,0.0,0.0,92,0.00,CLR,SCT,0.00,WeatherDisplay:10.37,2013-08-01 06:47:00,
2013-08-01 02:52:00,62.6,60.2,29.66,NE,44,0.0,0.0,92,0.00,CLR,SCT,0.00,WeatherDisplay:10.37,2013-08-01 06:52:00,
2013-08-01 02:57:00,62.5,60.4,29.66,NE,44,0.0,0.0,93,0.00,CLR,SCT,0.00,WeatherDisplay:10.37,2013-08-01 06:57:00,
2013-08-01 03:02:00,62.4,60.3,29.66,NE,44,0.0,0.0,93,0.00,CLR,SCT,0.00,WeatherDisplay:10.37,2013-08-01 07:02:00,
2013-08-01 03:07:00,62.3,60.2,29.66,NE,44,0.0,0.0,93,0.00,CLR,SCT,0.00,WeatherDisplay:10.37,2013-08-01 07:07:00,
2013-08-01 03:12:00,62.2,60.2,29.66,NE,44,0.0,0.0,93,0.00,CLR,SCT,0.00,WeatherDisplay:10.37,2013-08-01 07:12:00,
2013-08-01 03:17:00,62.1,60.4,29.66,NE,44,0.0,0.0,94,0.00,CLR,SCT,0.00,WeatherDisplay:10.37,2013-08-01 07:17:00,
2013-08-01 03:22:00,62.0,60.3,29.66,NE,44,0.0,0.0,94,0.00,CLR,SCT,0.00,WeatherDisplay:10.37,2013-08-01 07:22:00,
2013-08-01 03:27:00,61.9,60.2,29.65,NE,44,0.0,0.0,94,0.00,CLR,SCT,0.00,WeatherDisplay:10.37,2013-08-01 07:27:00,
2013-08-01 03:32:00,61.8,60.1,29.65,NE,44,0.0,0.0,94,0.00,CLR,SCT,0.00,WeatherDisplay:10.37,2013-08-01 07:32:00,
2013-08-01 03:38:00,61.8,60.1,29.65,NE,44,0.0,0.0,94,0.00,CLR,SCT,0.00,WeatherDisplay:10.37,2013-08-01 07:38:00,
2013-08-01 03:43:00,61.8,60.1,29.65,NE,44,0.0,0.0,94,0.00,CLR,SCT,0.00,WeatherDisplay:10.37,2013-08-01 07:43:00,
2013-08-01 03:48:00,61.7,60.0,29.64,NE,44,0.0,0.0,94,0.00,CLR,SCT,0.00,WeatherDisplay:10.37,2013-08-01 07:48:00,
2013-08-01 03:53:00,61.7,60.3,29.64,NE,44,0.0,0.0,95,0.00,CLR,SCT,0.00,WeatherDisplay:10.37,2013-08-01 07:53:00,
2013-08-01 03:58:00,61.6,60.2,29.64,NE,44,0.0,0.0,95,0.00,CLR,SCT,0.00,WeatherDisplay:10.37,2013-08-01 07:58:00,
2013-08-01 04:03:00,61.6,60.2,29.64,NE,44,0.0,0.0,95,0.00,CLR,SCT,0.00,WeatherDisplay:10.37,2013-08-01 08:03:00,
2013-08-01 04:08:00,61.5,60.1,29.64,NE,44,0.0,0.0,95,0.00,CLR,SCT,0.00,WeatherDisplay:10.37,2013-08-01 08:08:00,
2013-08-01 04:13:00,61.4,60.0,29.64,NE,44,0.0,0.0,95,0.00,CLR,SCT,0.00,WeatherDisplay:10.37,2013-08-01 08:13:00,
2013-08-01 04:18:00,61.4,60.0,29.64,NE,44,0.0,0.0,95,0.00,CLR,SCT,0.00,WeatherDisplay:10.37,2013-08-01 08:18:00,
2013-08-01 04:24:00,61.3,59.9,29.64,NE,44,0.0,0.0,95,0.00,CLR,SCT,0.00,WeatherDisplay:10.37,2013-08-01 08:24:00,
2013-08-01 04:29:00,61.2,59.8,29.64,NE,44,0.0,0.0,95,0.00,CLR,SCT,0.00,WeatherDisplay:10.37,2013-08-01 08:29:00,
2013-08-01 04:34:00,61.1,59.7,29.64,NE,44,0.0,0.0,95,0.00,CLR,SCT,0.00,WeatherDisplay:10.37,2013-08-01 08:34:00,
2013-08-01 04:39:00,61.0,59.6,29.64,NE,44,0.0,0.0,95,0.00,CLR,SCT,0.00,WeatherDisplay:10.37,2013-08-01 08:39:00,
2013-08-01 04:45:00,60.9,59.5,29.64,NE,44,0.0,0.0,95,0.00,CLR,SCT,0.00,WeatherDisplay:10.37,2013-08-01 08:45:00,
2013-08-01 04:50:00,61.0,59.9,29.64,NE,44,0.0,0.0,96,0.00,CLR,SCT,0.00,WeatherDisplay:10.37,2013-08-01 08:50:00,
2013-08-01 04:55:00,61.0,59.9,29.63,NE,44,0.0,1.1,96,0.00,CLR,SCT,0.00,WeatherDisplay:10.37,2013-08-01 08:55:00,
2013-08-01 05:00:00,61.0,59.9,29.63,NE,44,0.0,0.0,96,0.00,CLR,SCT,0.00,WeatherDisplay:10.37,2013-08-01 09:00:00,
2013-08-01 05:05:00,61.1,60.0,29.63,NE,44,0.0,0.0,96,0.00,CLR,SCT,0.00,WeatherDisplay:10.37,2013-08-01 09:05:00,
2013-08-01 05:10:00,61.1,60.0,29.64,NE,44,0.0,0.0,96,0.00,CLR,SCT,0.00,WeatherDisplay:10.37,2013-08-01 09:10:00,
2013-08-01 05:16:00,61.0,59.9,29.64,NE,44,0.0,0.0,96,0.00,CLR,SCT,0.00,WeatherDisplay:10.37,2013-08-01 09:16:00,
2013-08-01 05:21:00,61.0,59.9,29.64,NE,44,0.0,0.0,96,0.00,CLR,SCT,0.00,WeatherDisplay:10.37,2013-08-01 09:21:00,
2013-08-01 05:26:00,60.9,59.8,29.64,NE,44,0.0,0.0,96,0.00,CLR,SCT,0.00,WeatherDisplay:10.37,2013-08-01 09:26:00,
2013-08-01 05:32:00,60.9,59.8,29.64,NE,44,0.0,0.0,96,0.00,CLR,SCT,0.00,WeatherDisplay:10.37,2013-08-01 09:32:00,
2013-08-01 05:37:00,60.8,59.7,29.64,NE,44,0.0,0.0,96,0.00,CLR,SCT,0.00,WeatherDisplay:10.37,2013-08-01 09:37:00,
2013-08-01 05:43:00,60.8,59.7,29.64,NE,44,0.0,0.0,96,0.00,CLR,SCT,0.00,WeatherDisplay:10.37,2013-08-01 09:43:00,
2013-08-01 05:48:00,60.8,59.7,29.64,NE,44,0.0,0.0,96,0.00,CLR,SCT,0.00,WeatherDisplay:10.37,2013-08-01 09:48:00,
2013-08-01 05:53:00,60.8,59.7,29.64,NE,44,0.0,0.0,96,0.00,CLR,SCT,0.00,WeatherDisplay:10.37,2013-08-01 09:53:00,
2013-08-01 05:58:00,60.8,59.7,29.64,NE,44,0.0,0.0,96,0.00,CLR,SCT,0.00,WeatherDisplay:10.37,2013-08-01 09:58:00,
2013-08-01 06:03:00,60.8,59.7,29.64,NE,44,0.0,0.0,96,0.00,CLR,SCT,0.00,WeatherDisplay:10.37,2013-08-01 10:03:00,
2013-08-01 06:08:00,60.8,59.7,29.64,NE,44,0.0,0.0,96,0.00,CLR,SCT,0.00,WeatherDisplay:10.37,2013-08-01 10:08:00,
2013-08-01 06:13:00,60.8,59.7,29.64,NE,44,0.0,0.0,96,0.00,CLR,SCT,0.00,WeatherDisplay:10.37,2013-08-01 10:13:00,
2013-08-01 06:18:00,60.8,59.7,29.64,NE,44,0.0,0.0,96,0.00,CLR,SCT,0.00,WeatherDisplay:10.37,2013-08-01 10:18:00,
2013-08-01 06:23:00,60.8,59.7,29.64,NE,44,0.0,0.0,96,0.00,CLR,SCT,0.00,WeatherDisplay:10.37,2013-08-01 10:23:00,
2013-08-01 06:29:00,60.8,59.7,29.64,NE,44,0.0,0.0,96,0.00,CLR,SCT,0.00,WeatherDisplay:10.37,2013-08-01 10:29:00,
2013-08-01 06:34:00,60.8,59.7,29.64,NE,44,0.0,0.0,96,0.00,CLR,SCT,0.00,WeatherDisplay:10.37,2013-08-01 10:34:00,
2013-08-01 06:39:00,60.8,59.7,29.64,NE,44,0.0,0.0,96,0.00,CLR,SCT,0.00,WeatherDisplay:10.37,2013-08-01 10:39:00,
2013-08-01 06:44:00,60.8,59.7,29.64,NE,44,0.0,0.0,96,0.00,CLR,SCT,0.00,WeatherDisplay:10.37,2013-08-01 10:44:00,
2013-08-01 06:49:00,60.8,59.7,29.64,NE,44,0.0,0.0,96,0.00,CLR,SCT,0.00,WeatherDisplay:10.37,2013-08-01 10:49:00,
2013-08-01 06:54:00,60.8,59.7,29.64,NE,44,0.0,0.0,96,0.00,CLR,SCT,0.00,WeatherDisplay:10.37,2013-08-01 10:54:00,
2013-08-01 07:00:00,60.8,59.7,29.64,NE,44,0.0,0.0,96,0.00,CLR,SCT,0.00,WeatherDisplay:10.37,2013-08-01 11:00:00,
2013-08-01 07:05:00,60.8,59.7,29.64,NE,44,0.0,0.0,96,0.00,CLR,SCT,0.00,WeatherDisplay:10.37,2013-08-01 11:05:00,
2013-08-01 07:11:00,60.8,59.7,29.64,NE,44,0.0,0.0,96,0.00,CLR,SCT,0.00,WeatherDisplay:10.37,2013-08-01 11:11:00,
2013-08-01 07:16:00,60.8,59.7,29.64,NE,44,0.0,0.0,96,0.00,CLR,SCT,0.00,WeatherDisplay:10.37,2013-08-01 11:16:00,
2013-08-01 07:21:00,60.8,59.7,29.64,NE,44,0.0,0.0,96,0.00,CLR,SCT,0.00,WeatherDisplay:10.37,2013-08-01 11:21:00,
2013-08-01 07:26:00,60.8,59.7,29.64,NE,44,0.0,0.0,96,0.00,CLR,SCT,0.00,WeatherDisplay:10.37,2013-08-01 11:26:00,
2013-08-01 07:32:00,60.8,59.7,29.64,NE,44,0.0,0.0,96,0.00,CLR,SCT,0.00,WeatherDisplay:10.37,2013-08-01 11:32:00,
2013-08-01 07:37:00,60.8,59.7,29.64,NE,44,0.0,0.0,96,0.00,CLR,SCT,0.00,WeatherDisplay:10.37,2013-08-01 11:37:00,
2013-08-01 07:42:00,60.8,59.7,29.64,NE,44,0.0,0.0,96,0.00,CLR,SCT,0.00,WeatherDisplay:10.37,2013-08-01 11:42:00,
2013-08-01 07:47:00,60.8,59.7,29.64,NE,44,0.0,0.0,96,0.00,CLR,SCT,0.00,WeatherDisplay:10.37,2013-08-01 11:47:00,
2013-08-01 07:52:00,60.8,59.7,29.64,NE,44,0.0,0.0,96,0.00,CLR,SCT,0.00,WeatherDisplay:10.37,2013-08-01 11:52:00,
2013-08-01 07:58:00,60.8,59.7,29.64,NE,44,0.0,0.0,96,0.00,CLR,SCT,0.00,WeatherDisplay:10.37,2013-08-01 11:58:00,
2013-08-01 08:03:00,60.8,59.7,29.64,NE,44,0.0,0.0,96,0.00,CLR,SCT,0.00,WeatherDisplay:10.37,2013-08-01 12:03:00,
2013-08-01 08:08:00,60.8,59.7,29.64,NE,44,0.0,0.0,96,0.00,CLR,SCT,0.00,WeatherDisplay:10.37,2013-08-01 12:08:00,
2013-08-01 08:13:00,60.8,59.7,29.64,NE,44,0.0,0.0,96,0.00,CLR,SCT,0.00,WeatherDisplay:10.37,2013-08-01 12:13:00,
2013-08-01 08:18:00,60.8,59.7,29.64,NE,44,0.0,0.0,96,0.00,CLR,SCT,0.00,WeatherDisplay:10.37,2013-08-01 12:18:00,
2013-08-01 08:23:00,60.8,59.7,29.64,NE,44,0.0,0.0,96,0.00,CLR,SCT,0.00,WeatherDisplay:10.37,2013-08-01 12:23:00,
2013-08-01 08:29:00,60.8,59.7,29.64,NE,44,0.0,0.0,96,0.00,CLR,SCT,0.00,WeatherDisplay:10.37,2013-08-01 12:29:00,
2013-08-01 08:34:00,60.8,59.7,29.64,NE,44,0.0,0.0,96,0.00,CLR,SCT,0.00,WeatherDisplay:10.37,2013-08-01 12:34:00,
2013-08-01 08:39:00,60.8,59.7,29.64,NE,44,0.0,0.0,96,0.00,CLR,SCT,0.00,WeatherDisplay:10.37,2013-08-01 12:39:00,
2013-08-01 08:44:00,60.8,59.7,29.64,NE,44,0.0,0.0,96,0.00,CLR,SCT,0.00,WeatherDisplay:10.37,2013-08-01 12:44:00,
2013-08-01 08:49:00,60.8,59.7,29.64,NE,44,0.0,0.0,96,0.00,CLR,SCT,0.00,WeatherDisplay:10.37,2013-08-01 12:49:00,
2013-08-01 08:54:00,60.8,59.7,29.64,NE,44,0.0,0.0,96,0.00,CLR,SCT,0.00,WeatherDisplay:10.37,2013-08-01 12:54:00,
2013-08-01 08:59:00,60.8,59.7,29.64,NE,44,0.0,0.0,96,0.00,CLR,SCT,0.00,WeatherDisplay:10.37,2013-08-01 12:59:00,
2013-08-01 09:05:00,60.8,59.7,29.64,NE,44,0.0,0.0,96,0.00,CLR,SCT,0.00,WeatherDisplay:10.37,2013-08-01 13:05:00,
2013-08-01 09:10:00,60.8,59.7,29.64,NE,44,0.0,0.0,96,0.00,CLR,SCT,0.00,WeatherDisplay:10.37,2013-08-01 13:10:00,
2013-08-01 09:15:00,60.8,59.7,29.64,NE,44,0.0,0.0,96,0.00,CLR,SCT,0.00,WeatherDisplay:10.37,2013-08-01 13:15:00,
2013-08-01 09:20:00,60.8,59.7,29.64,NE,44,0.0,0.0,96,0.00,CLR,SCT,0.00,WeatherDisplay:10.37,2013-08-01 13:20:00,
2013-08-01 09:25:00,60.8,59.7,29.64,NE,44,0.0,0.0,96,0.00,CLR,SCT,0.00,WeatherDisplay:10.37,2013-08-01 13:25:00,
2013-08-01 09:31:00,60.8,59.7,29.64,NE,44,0.0,0.0,96,0.00,CLR,SCT,0.00,WeatherDisplay:10.37,2013-08-01 13:31:00,
2013-08-01 09:36:00,60.8,59.7,29.64,NE,44,0.0,0.0,96,0.00,CLR,SCT,0.00,WeatherDisplay:10.37,2013-08-01 13:36:00,
2013-08-01 09:41:00,60.8,59.7,29.64,NE,44,0.0,0.0,96,0.00,CLR,SCT,0.00,WeatherDisplay:10.37,2013-08-01 13:41:00,
2013-08-01 09:46:00,60.8,59.7,29.64,NE,44,0.0,0.0,96,0.00,CLR,SCT,0.00,WeatherDisplay:10.37,2013-08-01 13:46:00,
2013-08-01 09:51:00,60.8,59.7,29.64,NE,44,0.0,0.0,96,0.00,CLR,SCT,0.00,WeatherDisplay:10.37,2013-08-01 13:51:00,
2013-08-01 09:56:00,60.8,59.7,29.64,NE,44,0.0,0.0,96,0.00,CLR,SCT,0.00,WeatherDisplay:10.37,2013-08-01 13:56:00,
2013-08-01 10:01:00,60.8,59.7,29.64,NE,44,0.0,0.0,96,0.00,CLR,SCT,0.00,WeatherDisplay:10.37,2013-08-01 14:01:00,
2013-08-01 10:07:00,60.8,59.7,29.64,NE,44,0.0,0.0,96,0.00,CLR,SCT,0.00,WeatherDisplay:10.37,2013-08-01 14:07:00,
2013-08-01 10:12:00,60.8,59.7,29.64,NE,44,0.0,0.0,96,0.00,CLR,SCT,0.00,WeatherDisplay:10.37,2013-08-01 14:12:00,
2013-08-01 10:17:00,60.8,59.7,29.64,NE,44,0.0,0.0,96,0.00,CLR,SCT,0.00,WeatherDisplay:10.37,2013-08-01 14:17:00,
2013-08-01 10:22:00,60.8,59.7,29.64,NE,44,0.0,0.0,96,0.00,CLR,SCT,0.00,WeatherDisplay:10.37,2013-08-01 14:22:00,
2013-08-01 10:27:00,60.8,59.7,29.64,NE,44,0.0,0.0,96,0.00,CLR,SCT,0.00,WeatherDisplay:10.37,2013-08-01 14:27:00,
2013-08-01 10:33:00,60.8,59.7,29.64,NE,44,0.0,0.0,96,0.00,CLR,SCT,0.00,WeatherDisplay:10.37,2013-08-01 14:33:00,
2013-08-01 10:38:00,60.8,59.7,29.64,NE,44,0.0,0.0,96,0.00,CLR,SCT,0.00,WeatherDisplay:10.37,2013-08-01 14:38:00,
2013-08-01 10:43:00,60.8,59.7,29.64,NE,44,0.0,0.0,96,0.00,CLR,SCT,0.00,WeatherDisplay:10.37,2013-08-01 14:43:00,
2013-08-01 10:48:00,60.8,59.7,29.64,NE,44,0.0,0.0,96,0.00,CLR,SCT,0.00,WeatherDisplay:10.37,2013-08-01 14:48:00,
2013-08-01 10:54:00,60.8,59.7,29.64,NE,44,0.0,0.0,96,0.00,CLR,SCT,0.00,WeatherDisplay:10.37,2013-08-01 14:54:00,
2013-08-01 10:59:00,60.8,59.7,29.64,NE,44,0.0,0.0,96,0.00,CLR,SCT,0.00,WeatherDisplay:10.37,2013-08-01 14:59:00,
2013-08-01 11:04:00,60.8,59.7,29.64,NE,44,0.0,0.0,96,0.00,CLR,SCT,0.00,WeatherDisplay:10.37,2013-08-01 15:04:00,
2013-08-01 11:09:00,60.8,59.7,29.64,NE,44,0.0,0.0,96,0.00,CLR,SCT,0.00,WeatherDisplay:10.37,2013-08-01 15:09:00,
2013-08-01 11:14:00,60.8,59.7,29.64,NE,44,0.0,0.0,96,0.00,CLR,SCT,0.00,WeatherDisplay:10.37,2013-08-01 15:14:00,
2013-08-01 11:19:00,60.8,59.7,29.64,NE,44,0.0,0.0,96,0.00,CLR,SCT,0.00,WeatherDisplay:10.37,2013-08-01 15:19:00,
2013-08-01 11:24:00,60.8,59.7,29.64,NE,44,0.0,0.0,96,0.00,CLR,SCT,0.00,WeatherDisplay:10.37,2013-08-01 15:24:00,
2013-08-01 11:29:00,60.8,59.7,29.64,NE,44,0.0,0.0,96,0.00,CLR,SCT,0.00,WeatherDisplay:10.37,2013-08-01 15:29:00,
2013-08-01 11:34:00,60.8,59.7,29.64,NE,44,0.0,0.0,96,0.00,CLR,SCT,0.00,WeatherDisplay:10.37,2013-08-01 15:34:00,
2013-08-01 11:39:00,60.8,59.7,29.64,NE,44,0.0,0.0,96,0.00,CLR,SCT,0.00,WeatherDisplay:10.37,2013-08-01 15:39:00,
2013-08-01 11:44:00,60.8,59.7,29.64,NE,44,0.0,0.0,96,0.00,CLR,SCT,0.00,WeatherDisplay:10.37,2013-08-01 15:44:00,
2013-08-01 11:49:00,60.8,59.7,29.64,NE,44,0.0,0.0,96,0.00,CLR,SCT,0.00,WeatherDisplay:10.37,2013-08-01 15:49:00,
2013-08-01 11:54:00,60.8,59.7,29.64,NE,44,0.0,0.0,96,0.00,CLR,SCT,0.00,WeatherDisplay:10.37,2013-08-01 15:54:00,
2013-08-01 11:59:00,60.8,59.7,29.64,NE,44,0.0,0.0,96,0.00,CLR,SCT,0.00,WeatherDisplay:10.37,2013-08-01 15:59:00,
2013-08-01 12:04:00,60.8,59.7,29.64,NE,44,0.0,0.0,96,0.00,CLR,SCT,0.00,WeatherDisplay:10.37,2013-08-01 16:04:00,
2013-08-01 12:10:00,60.8,59.7,29.64,NE,44,0.0,0.0,96,0.00,CLR,SCT,0.00,WeatherDisplay:10.37,2013-08-01 16:10:00,
2013-08-01 12:15:00,60.8,59.7,29.64,NE,44,0.0,0.0,96,0.00,CLR,SCT,0.00,WeatherDisplay:10.37,2013-08-01 16:15:00,
2013-08-01 12:20:00,60.8,59.7,29.64,NE,44,0.0,0.0,96,0.00,CLR,SCT,0.00,WeatherDisplay:10.37,2013-08-01 16:20:00,
2013-08-01 12:25:00,60.8,59.7,29.64,NE,44,0.0,0.0,96,0.00,CLR,SCT,0.00,WeatherDisplay:10.37,2013-08-01 16:25:00,
2013-08-01 12:30:00,60.8,59.7,29.64,NE,44,0.0,0.0,96,0.00,CLR,SCT,0.00,WeatherDisplay:10.37,2013-08-01 16:30:00,
2013-08-01 12:35:00,60.8,59.7,29.64,NE,44,0.0,0.0,96,0.00,CLR,SCT,0.00,WeatherDisplay:10.37,2013-08-01 16:35:00,
2013-08-01 12:40:00,60.8,59.7,29.64,NE,44,0.0,0.0,96,0.00,CLR,SCT,0.00,WeatherDisplay:10.37,2013-08-01 16:40:00,
2013-08-01 12:46:00,60.8,59.7,29.64,NE,44,0.0,0.0,96,0.00,CLR,SCT,0.00,WeatherDisplay:10.37,2013-08-01 16:46:00,
2013-08-01 12:52:00,60.8,59.7,29.64,NE,44,0.0,0.0,96,0.00,CLR,SCT,0.00,WeatherDisplay:10.37,2013-08-01 16:52:00,
2013-08-01 12:57:00,60.8,59.7,29.64,NE,44,0.0,0.0,96,0.00,CLR,SCT,0.00,WeatherDisplay:10.37,2013-08-01 16:57:00,
2013-08-01 13:02:00,60.8,59.7,29.64,NE,44,0.0,0.0,96,0.00,CLR,SCT,0.00,WeatherDisplay:10.37,2013-08-01 17:02:00,
2013-08-01 13:07:00,60.8,59.7,29.64,NE,44,0.0,0.0,96,0.00,CLR,SCT,0.00,WeatherDisplay:10.37,2013-08-01 17:07:00,
2013-08-01 13:12:00,60.8,59.7,29.64,NE,44,0.0,0.0,96,0.00,CLR,SCT,0.00,WeatherDisplay:10.37,2013-08-01 17:12:00,
2013-08-01 13:18:00,60.8,59.7,29.64,NE,44,0.0,0.0,96,0.00,CLR,SCT,0.00,WeatherDisplay:10.37,2013-08-01 17:18:00,
2013-08-01 13:23:00,60.8,59.7,29.64,NE,44,0.0,0.0,96,0.00,CLR,SCT,0.00,WeatherDisplay:10.37,2013-08-01 17:23:00,
2013-08-01 13:28:00,60.8,59.7,29.64,NE,44,0.0,0.0,96,0.00,CLR,SCT,0.00,WeatherDisplay:10.37,2013-08-01 17:28:00,
2013-08-01 13:33:00,60.8,59.7,29.64,NE,44,0.0,0.0,96,0.00,CLR,SCT,0.00,WeatherDisplay:10.37,2013-08-01 17:33:00,
2013-08-01 13:38:00,60.8,59.7,29.64,NE,44,0.0,0.0,96,0.00,CLR,SCT,0.00,WeatherDisplay:10.37,2013-08-01 17:38:00,
2013-08-01 13:44:00,60.8,59.7,29.64,NE,44,0.0,0.0,96,0.00,CLR,SCT,0.00,WeatherDisplay:10.37,2013-08-01 17:44:00,
2013-08-01 13:49:00,60.8,59.7,29.64,NE,44,0.0,0.0,96,0.00,CLR,SCT,0.00,WeatherDisplay:10.37,2013-08-01 17:49:00,
2013-08-01 13:54:00,60.8,59.7,29.64,NE,44,0.0,0.0,96,0.00,CLR,SCT,0.00,WeatherDisplay:10.37,2013-08-01 17:54:00,
2013-08-01 13:59:00,60.8,59.7,29.64,NE,44,0.0,0.0,96,0.00,CLR,SCT,0.00,WeatherDisplay:10.37,2013-08-01 17:59:00,
2013-08-01 14:04:00,60.8,59.7,29.64,NE,44,0.0,0.0,96,0.00,CLR,SCT,0.00,WeatherDisplay:10.37,2013-08-01 18:04:00,
2013-08-01 14:09:00,60.8,59.7,29.64,NE,44,0.0,0.0,96,0.00,CLR,SCT,0.00,WeatherDisplay:10.37,2013-08-01 18:09:00,